When you browse on this site, cookies collect data to enhance your experience and personalize the content and advertising you see.
Visit our Privacy Policy to learn more. By continuing to use the site, you agree to this use of cookies and data.
  • In Schweiz
  • Länderverzeichnis
  • Für 7 Tage
  • Wassertemperatur
  • Wetterkarte
  • Widgets
  • user-avatar
    Anmelden

    Stündliche Wetter Djelfa

    Heute, 26 August, Montag

    Zeit Temperatur Niederschläge Wind Luftdruck Luftfeuchtigkeit
    00:00 +26°C° 0 mm 1 m/S 666 mmHg 27%
    01:00 +26°C° 0 mm 2 m/S 666 mmHg 29%
    02:00 +25°C° 0 mm 2 m/S 666 mmHg 31%
    03:00 +25°C° 0 mm 2 m/S 666 mmHg 33%
    04:00 +25°C° 0 mm 2 m/S 666 mmHg 36%
    05:00 +25°C° 0 mm 2 m/S 666 mmHg 40%
    06:00 +24°C° 0 mm 2 m/S 666 mmHg 43%
    07:00 +26°C° 0 mm 2 m/S 667 mmHg 39%
    08:00 +28°C° 0 mm 2 m/S 667 mmHg 35%
    09:00 +30°C° 0 mm 3 m/S 668 mmHg 31%
    10:00 +31°C° 0 mm 2 m/S 668 mmHg 27%
    11:00 +32°C° 0 mm 2 m/S 668 mmHg 24%
    12:00 +34°C° 0 mm 2 m/S 668 mmHg 20%
    13:00 +35°C° 0 mm 2 m/S 668 mmHg 19%
    14:00 +35°C° 0 mm 3 m/S 668 mmHg 18%
    15:00 +36°C° 0 mm 3 m/S 667 mmHg 17%
    16:00 +35°C° 0 mm 4 m/S 667 mmHg 19%
    17:00 +33°C° 0 mm 4 m/S 667 mmHg 22%
    18:00 +32°C° 0 mm 5 m/S 667 mmHg 25%
    19:00 +30°C° 0 mm 5 m/S 667 mmHg 26%
    20:00 +30°C° 0 mm 6 m/S 668 mmHg 28%
    21:00 +29°C° 0 mm 6 m/S 668 mmHg 29%
    22:00 +28°C° 0 mm 5 m/S 668 mmHg 32%
    23:00 +27°C° 0 mm 5 m/S 668 mmHg 34%

    Morgen, 27 August, Dienstag

    Zeit Temperatur Niederschläge Wind Luftdruck Luftfeuchtigkeit
    00:00 +26°C° 0 mm 4 m/S 668 mmHg 37%
    01:00 +26°C° 0 mm 4 m/S 668 mmHg 38%
    02:00 +26°C° 0 mm 4 m/S 668 mmHg 40%
    03:00 +25°C° 0 mm 4 m/S 667 mmHg 41%
    04:00 +23°C° 0 mm 6 m/S 667 mmHg 45%
    05:00 +22°C° 0 mm 9 m/S 667 mmHg 48%
    06:00 +21°C° 0 mm 11 m/S 667 mmHg 52%
    07:00 +22°C° 0.2 mm 11 m/S 668 mmHg 47%
    08:00 +24°C° 0.2 mm 11 m/S 668 mmHg 41%
    09:00 +26°C° 0.2 mm 11 m/S 669 mmHg 36%
    10:00 +28°C° 0 mm 10 m/S 669 mmHg 32%
    11:00 +31°C° 0 mm 8 m/S 668 mmHg 27%
    12:00 +32°C° 0 mm 7 m/S 668 mmHg 23%
    13:00 +32°C° 0 mm 8 m/S 668 mmHg 24%
    14:00 +32°C° 0 mm 9 m/S 667 mmHg 26%
    15:00 +32°C° 0 mm 10 m/S 666 mmHg 27%
    16:00 +31°C° 0.1 mm 9 m/S 666 mmHg 30%
    17:00 +29°C° 0.1 mm 8 m/S 666 mmHg 32%
    18:00 +28°C° 0.1 mm 6 m/S 666 mmHg 35%
    19:00 +27°C° 0.2 mm 7 m/S 667 mmHg 39%
    20:00 +24°C° 0.2 mm 8 m/S 667 mmHg 44%
    21:00 +23°C° 0.2 mm 9 m/S 668 mmHg 48%
    22:00 +24°C° 0.1 mm 8 m/S 668 mmHg 45%
    23:00 +26°C° 0.1 mm 6 m/S 668 mmHg 42%

    übermorgen, 28 August, Mittwoch

    Zeit Temperatur Niederschläge Wind Luftdruck Luftfeuchtigkeit
    00:00 +26°C° 0.1 mm 5 m/S 668 mmHg 38%
    01:00 +25°C° 0.2 mm 4 m/S 668 mmHg 42%
    02:00 +23°C° 0.2 mm 4 m/S 667 mmHg 46%
    03:00 +24°C° 0.2 mm 3 m/S 667 mmHg 50%
    04:00 +23°C° 0.1 mm 4 m/S 667 mmHg 48%
    05:00 +24°C° 0.1 mm 6 m/S 667 mmHg 45%
    06:00 +24°C° 0.1 mm 7 m/S 667 mmHg 42%
    07:00 +27°C° 0.1 mm 8 m/S 668 mmHg 37%
    08:00 +28°C° 0.1 mm 9 m/S 668 mmHg 33%
    09:00 +31°C° 0.1 mm 10 m/S 669 mmHg 28%
    10:00 +32°C° 0 mm 9 m/S 668 mmHg 26%
    11:00 +33°C° 0 mm 8 m/S 668 mmHg 24%
    12:00 +34°C° 0 mm 7 m/S 668 mmHg 22%
    13:00 +34°C° 0 mm 6 m/S 668 mmHg 21%
    14:00 +35°C° 0 mm 6 m/S 668 mmHg 20%
    15:00 +35°C° 0 mm 5 m/S 667 mmHg 19%
    16:00 +35°C° 0 mm 5 m/S 667 mmHg 21%
    17:00 +34°C° 0 mm 5 m/S 667 mmHg 23%
    18:00 +33°C° 0 mm 5 m/S 667 mmHg 25%
    19:00 +32°C° 0.1 mm 4 m/S 667 mmHg 29%
    20:00 +30°C° 0.1 mm 3 m/S 667 mmHg 33%
    21:00 +28°C° 0.1 mm 2 m/S 667 mmHg 37%
    22:00 +27°C° 0 mm 2 m/S 667 mmHg 41%
    23:00 +27°C° 0 mm 2 m/S 667 mmHg 44%

    29 August, Donnerstag

    Zeit Temperatur Niederschläge Wind Luftdruck Luftfeuchtigkeit
    00:00 +26°C° 0 mm 1 m/S 667 mmHg 48%
    01:00 +25°C° 0 mm 1 m/S 667 mmHg 50%
    02:00 +25°C° 0 mm 1 m/S 667 mmHg 52%
    03:00 +24°C° 0 mm 1 m/S 667 mmHg 55%
    04:00 +24°C° 0 mm 1 m/S 667 mmHg 54%
    05:00 +24°C° 0 mm 1 m/S 667 mmHg 53%
    06:00 +24°C° 0 mm 1 m/S 667 mmHg 52%
    07:00 +26°C° 0 mm 1 m/S 667 mmHg 47%
    08:00 +27°C° 0 mm 2 m/S 668 mmHg 42%
    09:00 +28°C° 0 mm 2 m/S 668 mmHg 37%
    10:00 +30°C° 0 mm 2 m/S 668 mmHg 33%
    11:00 +31°C° 0 mm 2 m/S 668 mmHg 30%
    12:00 +32°C° 0 mm 2 m/S 668 mmHg 27%
    13:00 +32°C° 0.1 mm 2 m/S 668 mmHg 26%
    14:00 +34°C° 0.1 mm 3 m/S 668 mmHg 25%
    15:00 +34°C° 0.1 mm 3 m/S 668 mmHg 25%
    16:00 +30°C° 1.3 mm 6 m/S 667 mmHg 36%
    17:00 +27°C° 1.3 mm 8 m/S 667 mmHg 47%
    18:00 +23°C° 1.3 mm 11 m/S 666 mmHg 59%
    19:00 +24°C° 0.4 mm 8 m/S 666 mmHg 55%
    20:00 +25°C° 0.4 mm 5 m/S 667 mmHg 50%
    21:00 +26°C° 0.4 mm 2 m/S 667 mmHg 46%
    22:00 +26°C° 0.1 mm 2 m/S 667 mmHg 46%
    23:00 +26°C° 0.1 mm 1 m/S 667 mmHg 45%

    30 August, Freitag

    Zeit Temperatur Niederschläge Wind Luftdruck Luftfeuchtigkeit
    00:00 +26°C° 0.1 mm 1 m/S 667 mmHg 45%
    01:00 +26°C° 0 mm 1 m/S 667 mmHg 47%
    02:00 +25°C° 0 mm 1 m/S 666 mmHg 48%
    03:00 +25°C° 0 mm 1 m/S 666 mmHg 50%
    04:00 +24°C° 0 mm 1 m/S 666 mmHg 51%
    05:00 +24°C° 0 mm 1 m/S 666 mmHg 51%
    06:00 +24°C° 0 mm 1 m/S 666 mmHg 52%
    07:00 +25°C° 0 mm 1 m/S 667 mmHg 50%
    08:00 +25°C° 0 mm 1 m/S 667 mmHg 47%
    09:00 +26°C° 0 mm 1 m/S 667 mmHg 45%
    10:00 +27°C° 0 mm 1 m/S 667 mmHg 42%
    11:00 +28°C° 0 mm 1 m/S 667 mmHg 38%
    12:00 +29°C° 0 mm 1 m/S 667 mmHg 35%
    13:00 +30°C° 0 mm 1 m/S 667 mmHg 33%
    14:00 +30°C° 0 mm 1 m/S 667 mmHg 31%
    15:00 +31°C° 0 mm 2 m/S 666 mmHg 29%
    16:00 +31°C° 0 mm 2 m/S 666 mmHg 30%
    17:00 +30°C° 0 mm 3 m/S 666 mmHg 31%
    18:00 +30°C° 0 mm 3 m/S 666 mmHg 33%
    19:00 +29°C° 0.1 mm 3 m/S 667 mmHg 36%
    20:00 +28°C° 0.1 mm 4 m/S 667 mmHg 39%
    21:00 +27°C° 0.1 mm 4 m/S 667 mmHg 41%
    22:00 +26°C° 0 mm 5 m/S 667 mmHg 45%
    23:00 +26°C° 0 mm 5 m/S 666 mmHg 48%

    31 August, Samstag

    Zeit Temperatur Niederschläge Wind Luftdruck Luftfeuchtigkeit
    00:00 +24°C° 0 mm 6 m/S 666 mmHg 51%
    01:00 +23°C° 0 mm 5 m/S 665 mmHg 53%
    02:00 +23°C° 0 mm 5 m/S 665 mmHg 54%
    03:00 +22°C° 0 mm 5 m/S 665 mmHg 56%
    04:00 +22°C° 0 mm 4 m/S 665 mmHg 57%
    05:00 +22°C° 0 mm 4 m/S 665 mmHg 58%
    06:00 +22°C° 0 mm 3 m/S 665 mmHg 58%
    07:00 +23°C° 0 mm 4 m/S 666 mmHg 54%
    08:00 +25°C° 0 mm 4 m/S 666 mmHg 49%
    09:00 +27°C° 0 mm 5 m/S 667 mmHg 44%
    10:00 +28°C° 0 mm 5 m/S 667 mmHg 42%
    11:00 +28°C° 0 mm 4 m/S 666 mmHg 39%
    12:00 +29°C° 0 mm 4 m/S 666 mmHg 37%
    13:00 +30°C° 0 mm 4 m/S 666 mmHg 35%
    14:00 +30°C° 0 mm 3 m/S 665 mmHg 33%
    15:00 +30°C° 0 mm 3 m/S 665 mmHg 32%
    16:00 +29°C° 0.3 mm 5 m/S 665 mmHg 38%
    17:00 +27°C° 0.3 mm 7 m/S 665 mmHg 44%
    18:00 +26°C° 0.3 mm 8 m/S 665 mmHg 50%
    19:00 +24°C° 0.9 mm 7 m/S 665 mmHg 52%
    20:00 +23°C° 0.9 mm 5 m/S 665 mmHg 54%
    21:00 +24°C° 0.9 mm 3 m/S 666 mmHg 56%
    22:00 +24°C° 0.1 mm 3 m/S 666 mmHg 57%
    23:00 +22°C° 0.1 mm 3 m/S 665 mmHg 58%
    Mehr zeigen